• In Belarus
  • List of Countries
  • For 7 days
  • Water Temperature
  • Satellite Maps
  • Weather Map
  • Weather Widgets
  • user-avatar
    Login

    Hourly Weather Elbasan

    Today, 17 October, Wednesday

    Time Temperature Precipitation Wind Pressure Humidity
    00:00 +18°C° 0 mm 1 mps 738 mmHg 71%
    01:00 +18°C° 0 mm 1 mps 738 mmHg 72%
    02:00 +16°C° 0 mm 1 mps 738 mmHg 72%
    03:00 +16°C° 0 mm 1 mps 738 mmHg 73%
    04:00 +16°C° 0 mm 1 mps 737 mmHg 74%
    05:00 +16°C° 0 mm 1 mps 737 mmHg 73%
    06:00 +18°C° 0 mm 1 mps 737 mmHg 72%
    07:00 +17°C° 0 mm 2 mps 737 mmHg 71%
    08:00 +21°C° 0 mm 1 mps 737 mmHg 62%
    09:00 +23°C° 0 mm 1 mps 737 mmHg 54%
    10:00 +25°C° 0 mm 1 mps 737 mmHg 45%
    11:00 +26°C° 0 mm 1 mps 737 mmHg 42%
    12:00 +26°C° 0 mm 2 mps 737 mmHg 40%
    13:00 +27°C° 0 mm 2 mps 736 mmHg 37%
    14:00 +26°C° 0 mm 2 mps 736 mmHg 40%
    15:00 +25°C° 0 mm 2 mps 736 mmHg 44%
    16:00 +25°C° 0 mm 2 mps 735 mmHg 47%
    17:00 +23°C° 0 mm 1 mps 736 mmHg 53%
    18:00 +21°C° 0 mm 1 mps 736 mmHg 58%
    19:00 +17°C° 0 mm 0 mps 736 mmHg 64%
    20:00 +19°C° 0 mm 1 mps 736 mmHg 64%
    21:00 +19°C° 0 mm 1 mps 736 mmHg 63%
    22:00 +18°C° 0 mm 1 mps 736 mmHg 63%
    23:00 +18°C° 0 mm 1 mps 736 mmHg 63%

    Tomorrow, 18 October, Thursday

    Time Temperature Precipitation Wind Pressure Humidity
    00:00 +18°C° 0 mm 1 mps 736 mmHg 63%
    01:00 +18°C° 0 mm 1 mps 736 mmHg 63%
    02:00 +16°C° 0 mm 1 mps 736 mmHg 64%
    03:00 +16°C° 0 mm 1 mps 735 mmHg 64%
    04:00 +16°C° 0 mm 1 mps 735 mmHg 65%
    05:00 +16°C° 0 mm 1 mps 735 mmHg 64%
    06:00 +17°C° 0 mm 2 mps 735 mmHg 63%
    07:00 +17°C° 0 mm 2 mps 735 mmHg 62%
    08:00 +20°C° 0 mm 1 mps 735 mmHg 54%
    09:00 +23°C° 0 mm 1 mps 735 mmHg 46%
    10:00 +25°C° 0 mm 1 mps 735 mmHg 38%
    11:00 +26°C° 0 mm 1 mps 735 mmHg 36%
    12:00 +26°C° 0 mm 2 mps 735 mmHg 34%
    13:00 +27°C° 0 mm 2 mps 734 mmHg 32%
    14:00 +26°C° 0 mm 2 mps 734 mmHg 36%
    15:00 +25°C° 0 mm 2 mps 734 mmHg 40%
    16:00 +25°C° 0 mm 2 mps 734 mmHg 44%
    17:00 +23°C° 0 mm 1 mps 734 mmHg 50%
    18:00 +21°C° 0 mm 1 mps 734 mmHg 56%
    19:00 +17°C° 0 mm 0 mps 735 mmHg 63%
    20:00 +17°C° 0 mm 0 mps 735 mmHg 62%
    21:00 +18°C° 0 mm 1 mps 735 mmHg 62%
    22:00 +18°C° 0 mm 1 mps 735 mmHg 62%
    23:00 +18°C° 0 mm 1 mps 735 mmHg 62%

    Day after tomorrow, 19 October, Friday

    Time Temperature Precipitation Wind Pressure Humidity
    00:00 +18°C° 0 mm 1 mps 735 mmHg 62%
    01:00 +16°C° 0 mm 1 mps 735 mmHg 62%
    02:00 +16°C° 0 mm 1 mps 735 mmHg 62%
    03:00 +16°C° 0 mm 1 mps 735 mmHg 62%
    04:00 +16°C° 0 mm 1 mps 735 mmHg 62%
    05:00 +16°C° 0 mm 1 mps 735 mmHg 61%
    06:00 +18°C° 0 mm 1 mps 735 mmHg 60%
    07:00 +18°C° 0 mm 1 mps 736 mmHg 59%
    08:00 +21°C° 0 mm 1 mps 736 mmHg 52%
    09:00 +23°C° 0 mm 1 mps 736 mmHg 45%
    10:00 +26°C° 0 mm 1 mps 736 mmHg 38%
    11:00 +26°C° 0 mm 1 mps 736 mmHg 36%
    12:00 +27°C° 0 mm 2 mps 736 mmHg 34%
    13:00 +27°C° 0 mm 2 mps 736 mmHg 33%
    14:00 +26°C° 0 mm 2 mps 736 mmHg 36%
    15:00 +25°C° 0 mm 2 mps 736 mmHg 39%
    16:00 +25°C° 0 mm 2 mps 736 mmHg 43%
    17:00 +23°C° 0 mm 2 mps 736 mmHg 48%
    18:00 +21°C° 0 mm 1 mps 736 mmHg 54%
    19:00 +19°C° 0 mm 1 mps 736 mmHg 59%
    20:00 +19°C° 0 mm 1 mps 736 mmHg 59%
    21:00 +18°C° 0 mm 1 mps 737 mmHg 59%
    22:00 +18°C° 0 mm 1 mps 737 mmHg 59%
    23:00 +18°C° 0 mm 1 mps 737 mmHg 60%

    20 October, Saturday

    Time Temperature Precipitation Wind Pressure Humidity
    00:00 +18°C° 0 mm 1 mps 737 mmHg 61%
    01:00 +16°C° 0 mm 1 mps 737 mmHg 61%
    02:00 +16°C° 0 mm 1 mps 737 mmHg 62%
    03:00 +16°C° 0 mm 1 mps 737 mmHg 64%
    04:00 +15°C° 0 mm 1 mps 737 mmHg 65%
    05:00 +16°C° 0 mm 1 mps 737 mmHg 64%
    06:00 +16°C° 0 mm 2 mps 737 mmHg 64%
    07:00 +17°C° 0 mm 2 mps 738 mmHg 63%
    08:00 +19°C° 0 mm 2 mps 738 mmHg 56%
    09:00 +22°C° 0 mm 1 mps 738 mmHg 49%
    10:00 +24°C° 0 mm 1 mps 738 mmHg 41%
    11:00 +25°C° 0 mm 2 mps 738 mmHg 40%
    12:00 +26°C° 0 mm 2 mps 738 mmHg 38%
    13:00 +26°C° 0 mm 3 mps 737 mmHg 36%
    14:00 +25°C° 0 mm 3 mps 737 mmHg 38%
    15:00 +25°C° 0 mm 3 mps 737 mmHg 41%
    16:00 +24°C° 0 mm 3 mps 737 mmHg 43%
    17:00 +21°C° 0 mm 3 mps 737 mmHg 47%
    18:00 +20°C° 0 mm 2 mps 738 mmHg 51%
    19:00 +18°C° 0 mm 2 mps 738 mmHg 55%
    20:00 +17°C° 0 mm 2 mps 738 mmHg 56%
    21:00 +17°C° 0 mm 2 mps 739 mmHg 57%
    22:00 +16°C° 0 mm 2 mps 739 mmHg 57%
    23:00 +16°C° 0 mm 2 mps 739 mmHg 59%

    21 October, Sunday

    Time Temperature Precipitation Wind Pressure Humidity
    00:00 +15°C° 0 mm 2 mps 739 mmHg 60%
    01:00 +14°C° 0 mm 3 mps 739 mmHg 62%
    02:00 +13°C° 0 mm 3 mps 739 mmHg 64%
    03:00 +13°C° 0 mm 3 mps 739 mmHg 67%
    04:00 +13°C° 0 mm 3 mps 739 mmHg 69%
    05:00 +13°C° 0 mm 3 mps 739 mmHg 69%
    06:00 +13°C° 0 mm 3 mps 739 mmHg 69%
    07:00 +14°C° 0 mm 3 mps 739 mmHg 68%
    08:00 +17°C° 0 mm 3 mps 739 mmHg 60%
    09:00 +19°C° 0 mm 3 mps 739 mmHg 52%
    10:00 +21°C° 0 mm 3 mps 739 mmHg 44%
    11:00 +22°C° 0 mm 3 mps 739 mmHg 41%
    12:00 +23°C° 0 mm 2 mps 739 mmHg 39%
    13:00 +24°C° 0 mm 2 mps 738 mmHg 36%
    14:00 +23°C° 0 mm 2 mps 738 mmHg 38%
    15:00 +22°C° 0 mm 3 mps 738 mmHg 40%
    16:00 +21°C° 0 mm 3 mps 738 mmHg 42%
    17:00 +20°C° 0 mm 3 mps 738 mmHg 47%
    18:00 +18°C° 0 mm 3 mps 738 mmHg 52%
    19:00 +16°C° 0 mm 3 mps 738 mmHg 57%
    20:00 +16°C° 0 mm 3 mps 738 mmHg 59%
    21:00 +14°C° 0 mm 3 mps 738 mmHg 62%
    22:00 +14°C° 0 mm 2 mps 738 mmHg 64%
    23:00 +14°C° 0 mm 2 mps 738 mmHg 66%

    22 October, Monday

    Time Temperature Precipitation Wind Pressure Humidity
    00:00 +13°C° 0 mm 2 mps 738 mmHg 68%
    01:00 +13°C° 0 mm 2 mps 737 mmHg 70%
    02:00 +13°C° 0 mm 2 mps 737 mmHg 72%
    03:00 +12°C° 0 mm 2 mps 737 mmHg 73%
    04:00 +12°C° 0 mm 2 mps 736 mmHg 75%
    05:00 +12°C° 0 mm 2 mps 736 mmHg 73%
    06:00 +12°C° 0 mm 2 mps 737 mmHg 71%
    07:00 +13°C° 0 mm 2 mps 737 mmHg 69%
    08:00 +15°C° 0 mm 2 mps 736 mmHg 60%
    09:00 +17°C° 0 mm 2 mps 736 mmHg 51%
    10:00 +19°C° 0 mm 2 mps 736 mmHg 42%
    11:00 +19°C° 0 mm 2 mps 735 mmHg 40%
    12:00 +20°C° 0 mm 3 mps 735 mmHg 37%
    13:00 +20°C° 0 mm 3 mps 734 mmHg 34%
    14:00 +19°C° 0 mm 3 mps 734 mmHg 35%
    15:00 +19°C° 0 mm 3 mps 734 mmHg 37%
    16:00 +18°C° 0 mm 4 mps 734 mmHg 38%
    17:00 +15°C° 0 mm 4 mps 734 mmHg 41%
    18:00 +14°C° 0 mm 4 mps 734 mmHg 43%
    19:00 +13°C° 0 mm 4 mps 735 mmHg 46%
    20:00 +12°C° 0 mm 4 mps 735 mmHg 50%
    21:00 +11°C° 0 mm 4 mps 735 mmHg 54%
    22:00 +10°C° 0 mm 4 mps 735 mmHg 58%
    23:00 +10°C° 0 mm 3 mps 735 mmHg 61%
    Show more